カタログに戻る

COSMOS 1375 DEB

運用中LEO
NORAD 18477·DEBRIS·🇷🇺 Russia

打ち上げ Jun 6, 1982 から Plesetsk Cosmodrome

Loading…

次のパス (今後24時間)

TLE

最新Source: Space-Track

元期: Sep 14, 2026, 13:26 UTC

1 18477U 82055BF  26257.55985825  .00004615  00000-0  11719-2 0  9993
2 18477  65.8156 317.1277 0025625 275.0166  84.8011 14.51486722 91210

AllMySatでCOSMOS 1375 DEBをリアルタイム追跡

Download on the App Store